Time,TemperatureF,DewpointF,PressureIn,WindDirection,WindDirectionDegrees,WindSpeedMPH,WindSpeedGustMPH,Humidity,HourlyPrecipIn,Conditions,Clouds,dailyrainin,SoftwareType,DateUTC
2013-05-18 00:04:00,65.8,64.6,29.77,ENE,67,2.7,-999.0,96,-99.99,,,0.00,Acu-Link.com,2013-05-18 04:04:00,
2013-05-18 00:19:00,65.8,64.6,29.77,ESE,112,2.7,-999.0,96,-99.99,,,0.00,Acu-Link.com,2013-05-18 04:19:00,
2013-05-18 00:35:00,65.7,64.5,29.77,East,90,2.7,-999.0,96,-99.99,,,0.00,Acu-Link.com,2013-05-18 04:35:00,
2013-05-18 00:50:00,65.5,64.6,29.76,East,90,2.2,-999.0,97,-99.99,,,0.00,Acu-Link.com,2013-05-18 04:50:00,
2013-05-18 01:05:00,65.5,64.9,29.76,ENE,67,2.2,-999.0,98,-99.99,,,0.00,Acu-Link.com,2013-05-18 05:05:00,
2013-05-18 01:20:00,65.5,65.2,29.76,East,90,2.2,-999.0,99,-99.99,,,0.00,Acu-Link.com,2013-05-18 05:20:00,
2013-05-18 01:35:00,65.3,65.0,29.75,East,90,2.2,-999.0,99,-99.99,,,0.00,Acu-Link.com,2013-05-18 05:35:00,
2013-05-18 01:50:00,65.3,65.0,29.75,East,90,2.7,-999.0,99,-99.99,,,0.00,Acu-Link.com,2013-05-18 05:50:00,
2013-05-18 02:05:00,65.1,64.8,29.74,East,90,4.2,-999.0,99,-99.99,,,0.00,Acu-Link.com,2013-05-18 06:05:00,
2013-05-18 02:20:00,64.8,64.5,29.74,East,90,3.2,-999.0,99,-99.99,,,0.00,Acu-Link.com,2013-05-18 06:20:00,
2013-05-18 02:35:00,64.4,64.1,29.74,ESE,112,2.2,-999.0,99,-99.99,,,0.00,Acu-Link.com,2013-05-18 06:35:00,
2013-05-18 02:51:00,64.4,64.1,29.74,ESE,112,0.0,-999.0,99,-99.99,,,0.00,Acu-Link.com,2013-05-18 06:51:00,
2013-05-18 03:06:00,64.4,64.1,29.74,WSW,247,0.0,-999.0,99,-99.99,,,0.00,Acu-Link.com,2013-05-18 07:06:00,
2013-05-18 03:21:00,64.2,63.9,29.74,SSE,157,0.0,-999.0,99,-99.99,,,0.00,Acu-Link.com,2013-05-18 07:21:00,
2013-05-18 03:36:00,64.0,63.7,29.74,WSW,247,0.0,-999.0,99,-99.99,,,0.00,Acu-Link.com,2013-05-18 07:36:00,
2013-05-18 03:51:00,64.0,63.7,29.74,West,270,1.7,-999.0,99,-99.99,,,0.00,Acu-Link.com,2013-05-18 07:51:00,
2013-05-18 04:07:00,63.9,63.6,29.74,ENE,67,0.0,-999.0,99,-99.99,,,0.00,Acu-Link.com,2013-05-18 08:07:00,
2013-05-18 04:22:00,63.9,63.6,29.74,NNE,22,0.0,-999.0,99,-99.99,,,0.00,Acu-Link.com,2013-05-18 08:22:00,
2013-05-18 04:37:00,63.9,63.6,29.74,West,270,0.0,-999.0,99,-99.99,,,0.00,Acu-Link.com,2013-05-18 08:37:00,
2013-05-18 04:52:00,63.3,63.0,29.73,East,90,1.7,-999.0,99,-99.99,,,0.00,Acu-Link.com,2013-05-18 08:52:00,
2013-05-18 05:07:00,63.3,63.0,29.73,NE,45,2.7,-999.0,99,-99.99,,,0.00,Acu-Link.com,2013-05-18 09:07:00,
2013-05-18 05:22:00,63.3,63.0,29.73,SE,135,0.0,-999.0,99,-99.99,,,0.00,Acu-Link.com,2013-05-18 09:22:00,
2013-05-18 05:38:00,63.0,62.7,29.74,ESE,112,1.1,-999.0,99,-99.99,,,0.00,Acu-Link.com,2013-05-18 09:38:00,
2013-05-18 05:53:00,63.3,63.0,29.74,NE,45,2.7,-999.0,99,-99.99,,,0.00,Acu-Link.com,2013-05-18 09:53:00,
2013-05-18 06:08:00,63.1,62.8,29.74,SE,135,0.0,-999.0,99,-99.99,,,0.00,Acu-Link.com,2013-05-18 10:08:00,
2013-05-18 06:23:00,63.0,62.7,29.75,SSE,157,2.7,-999.0,99,-99.99,,,0.00,Acu-Link.com,2013-05-18 10:23:00,
2013-05-18 06:38:00,63.3,63.0,29.76,SW,225,0.0,-999.0,99,-99.99,,,0.00,Acu-Link.com,2013-05-18 10:38:00,
2013-05-18 06:53:00,63.3,63.0,29.77,SW,225,0.0,-999.0,99,-99.99,,,0.00,Acu-Link.com,2013-05-18 10:53:00,
2013-05-18 07:08:00,63.3,63.0,29.77,West,270,0.0,-999.0,99,-99.99,,,0.00,Acu-Link.com,2013-05-18 11:08:00,
2013-05-18 07:23:00,63.3,63.0,29.77,NNE,22,0.0,-999.0,99,-99.99,,,0.00,Acu-Link.com,2013-05-18 11:23:00,
2013-05-18 07:38:00,63.7,63.4,29.78,ESE,112,2.7,-999.0,99,-99.99,,,0.00,Acu-Link.com,2013-05-18 11:38:00,
2013-05-18 07:54:00,63.9,63.6,29.77,SE,135,1.7,-999.0,99,-99.99,,,0.00,Acu-Link.com,2013-05-18 11:54:00,
2013-05-18 09:00:00,64.0,63.7,29.78,East,90,3.7,-999.0,99,-99.99,,,0.00,Acu-Link.com,2013-05-18 13:00:00,
2013-05-18 09:15:00,69.1,67.0,29.78,ESE,112,2.7,-999.0,93,-99.99,,,0.00,Acu-Link.com,2013-05-18 13:15:00,
2013-05-18 09:31:00,69.1,67.3,29.78,NE,45,3.2,-999.0,94,-99.99,,,0.00,Acu-Link.com,2013-05-18 13:31:00,
2013-05-18 09:46:00,69.4,67.0,29.78,ESE,112,2.7,-999.0,92,-99.99,,,0.00,Acu-Link.com,2013-05-18 13:46:00,
2013-05-18 10:01:00,70.9,67.2,29.78,South,180,6.3,-999.0,88,-99.99,,,0.00,Acu-Link.com,2013-05-18 14:01:00,
2013-05-18 10:16:00,73.4,67.9,29.77,SE,135,6.8,-999.0,83,-99.99,,,0.00,Acu-Link.com,2013-05-18 14:16:00,
2013-05-18 10:31:00,76.3,68.2,29.77,SSE,157,2.7,-999.0,76,-99.99,,,0.00,Acu-Link.com,2013-05-18 14:31:00,
2013-05-18 11:05:00,76.3,68.2,29.77,ESE,112,1.1,-999.0,76,-99.99,,,0.00,Acu-Link.com,2013-05-18 15:05:00,
2013-05-18 11:21:00,73.8,66.9,29.77,South,180,6.8,-999.0,79,-99.99,,,0.00,Acu-Link.com,2013-05-18 15:21:00,
2013-05-18 11:37:00,73.4,67.6,29.77,South,180,3.2,-999.0,82,-99.99,,,0.00,Acu-Link.com,2013-05-18 15:37:00,
2013-05-18 11:55:00,72.7,67.2,29.77,North,0,1.7,-999.0,83,-99.99,,,0.00,Acu-Link.com,2013-05-18 15:55:00,
2013-05-18 12:10:00,72.3,65.4,29.77,SSW,202,1.7,-999.0,79,-99.99,,,0.00,Acu-Link.com,2013-05-18 16:10:00,
2013-05-18 12:35:00,72.3,65.4,29.75,NNE,22,2.7,-999.0,79,-99.99,,,0.00,Acu-Link.com,2013-05-18 16:35:00,
2013-05-18 12:51:00,76.6,66.1,29.75,SSW,202,2.2,-999.0,70,-99.99,,,0.00,Acu-Link.com,2013-05-18 16:51:00,
2013-05-18 13:06:00,75.4,66.5,29.74,ESE,112,3.7,-999.0,74,-99.99,,,0.00,Acu-Link.com,2013-05-18 17:06:00,
2013-05-18 13:21:00,76.8,66.3,29.73,ESE,112,5.8,-999.0,70,-99.99,,,0.00,Acu-Link.com,2013-05-18 17:21:00,
2013-05-18 13:36:00,76.6,66.5,29.72,South,180,4.2,-999.0,71,-99.99,,,0.00,Acu-Link.com,2013-05-18 17:36:00,
2013-05-18 13:51:00,75.9,66.6,29.72,ESE,112,4.7,-999.0,73,-99.99,,,0.00,Acu-Link.com,2013-05-18 17:51:00,
2013-05-18 14:27:00,78.4,68.2,29.71,North,0,1.7,-999.0,71,-99.99,,,0.00,Acu-Link.com,2013-05-18 18:27:00,
2013-05-18 14:42:00,79.9,67.9,29.71,West,270,4.7,-999.0,67,-99.99,,,0.00,Acu-Link.com,2013-05-18 18:42:00,
2013-05-18 14:58:00,79.0,67.1,29.71,ESE,112,5.3,-999.0,67,-99.99,,,0.00,Acu-Link.com,2013-05-18 18:58:00,
2013-05-18 15:14:00,79.9,66.2,29.70,ESE,112,2.7,-999.0,63,-99.99,,,0.00,Acu-Link.com,2013-05-18 19:14:00,
2013-05-18 15:29:00,77.9,66.5,29.69,SE,135,2.7,-999.0,68,-99.99,,,0.00,Acu-Link.com,2013-05-18 19:29:00,
2013-05-18 15:45:00,78.1,65.8,29.70,SE,135,8.9,-999.0,66,-99.99,,,0.01,Acu-Link.com,2013-05-18 19:45:00,
2013-05-18 16:01:00,70.3,67.5,29.69,South,180,2.2,-999.0,91,-99.99,,,0.35,Acu-Link.com,2013-05-18 20:01:00,
2013-05-18 16:16:00,71.4,68.9,29.70,East,90,0.0,-999.0,92,-99.99,,,0.40,Acu-Link.com,2013-05-18 20:16:00,
2013-05-18 16:31:00,73.9,69.4,29.70,SE,135,0.0,-999.0,86,-99.99,,,0.40,Acu-Link.com,2013-05-18 20:31:00,
2013-05-18 16:46:00,76.6,70.3,29.70,ESE,112,2.2,-999.0,81,-99.99,,,0.40,Acu-Link.com,2013-05-18 20:46:00,
2013-05-18 17:01:00,76.6,69.2,29.69,SE,135,0.0,-999.0,78,-99.99,,,0.40,Acu-Link.com,2013-05-18 21:01:00,
2013-05-18 17:16:00,76.1,70.9,29.68,East,90,3.2,-999.0,84,-99.99,,,0.40,Acu-Link.com,2013-05-18 21:16:00,
2013-05-18 17:31:00,74.5,70.4,29.68,East,90,5.8,-999.0,87,-99.99,,,0.40,Acu-Link.com,2013-05-18 21:31:00,
2013-05-18 17:47:00,74.5,70.7,29.68,East,90,3.7,-999.0,88,-99.99,,,0.40,Acu-Link.com,2013-05-18 21:47:00,
2013-05-18 18:02:00,73.8,70.3,29.68,ENE,67,1.7,-999.0,89,-99.99,,,0.40,Acu-Link.com,2013-05-18 22:02:00,
2013-05-18 18:17:00,73.8,69.7,29.68,ESE,112,2.2,-999.0,87,-99.99,,,0.40,Acu-Link.com,2013-05-18 22:17:00,
2013-05-18 18:32:00,76.6,70.3,29.67,ESE,112,4.2,-999.0,81,-99.99,,,0.40,Acu-Link.com,2013-05-18 22:32:00,
2013-05-18 18:47:00,75.0,69.8,29.68,East,90,6.3,-999.0,84,-99.99,,,0.40,Acu-Link.com,2013-05-18 22:47:00,
2013-05-18 19:02:00,72.5,68.4,29.68,SE,135,5.3,-999.0,87,-99.99,,,0.40,Acu-Link.com,2013-05-18 23:02:00,
2013-05-18 19:17:00,71.6,68.5,29.69,SSE,157,3.2,-999.0,90,-99.99,,,0.40,Acu-Link.com,2013-05-18 23:17:00,
2013-05-18 19:32:00,71.2,68.4,29.69,WNW,292,2.2,-999.0,91,-99.99,,,0.40,Acu-Link.com,2013-05-18 23:32:00,
2013-05-18 19:47:00,70.3,68.2,29.69,East,90,1.7,-999.0,93,-99.99,,,0.55,Acu-Link.com,2013-05-18 23:47:00,
2013-05-18 20:03:00,70.0,68.8,29.69,NE,45,2.2,-999.0,96,-99.99,,,0.64,Acu-Link.com,2013-05-19 00:03:00,
2013-05-18 20:18:00,69.4,68.5,29.69,East,90,1.1,-999.0,97,-99.99,,,0.65,Acu-Link.com,2013-05-19 00:18:00,
2013-05-18 20:33:00,69.1,68.8,29.70,North,0,0.0,-999.0,99,-99.99,,,0.65,Acu-Link.com,2013-05-19 00:33:00,
2013-05-18 20:48:00,68.7,68.4,29.70,North,0,0.0,-999.0,99,-99.99,,,0.65,Acu-Link.com,2013-05-19 00:48:00,
2013-05-18 21:03:00,68.0,67.7,29.70,ENE,67,2.2,-999.0,99,-99.99,,,0.65,Acu-Link.com,2013-05-19 01:03:00,
2013-05-18 21:18:00,67.8,67.5,29.71,ENE,67,1.7,-999.0,99,-99.99,,,0.65,Acu-Link.com,2013-05-19 01:18:00,
2013-05-18 21:33:00,67.6,67.3,29.70,NE,45,1.1,-999.0,99,-99.99,,,0.65,Acu-Link.com,2013-05-19 01:33:00,
2013-05-18 21:48:00,67.5,67.2,29.72,NNW,337,0.0,-999.0,99,-99.99,,,0.65,Acu-Link.com,2013-05-19 01:48:00,
2013-05-18 22:03:00,67.5,67.2,29.72,SSW,202,0.0,-999.0,99,-99.99,,,0.65,Acu-Link.com,2013-05-19 02:03:00,
2013-05-18 22:19:00,67.5,67.2,29.72,WSW,247,0.0,-999.0,99,-99.99,,,0.65,Acu-Link.com,2013-05-19 02:19:00,
2013-05-18 22:34:00,67.3,67.0,29.72,SW,225,0.0,-999.0,99,-99.99,,,0.65,Acu-Link.com,2013-05-19 02:34:00,
2013-05-18 22:49:00,67.5,67.2,29.72,SSW,202,0.0,-999.0,99,-99.99,,,0.65,Acu-Link.com,2013-05-19 02:49:00,
2013-05-18 23:04:00,66.9,66.6,29.72,NNE,22,0.0,-999.0,99,-99.99,,,0.65,Acu-Link.com,2013-05-19 03:04:00,
2013-05-18 23:19:00,66.9,66.6,29.71,WSW,247,0.0,-999.0,99,-99.99,,,0.65,Acu-Link.com,2013-05-19 03:19:00,
2013-05-18 23:34:00,66.6,66.3,29.72,SSE,157,0.0,-999.0,99,-99.99,,,0.65,Acu-Link.com,2013-05-19 03:34:00,
2013-05-18 23:49:00,66.2,65.9,29.71,SSE,157,0.0,-999.0,99,-99.99,,,0.65,Acu-Link.com,2013-05-19 03:49:00,